Wind_Speed
19 19 18 18 20 17 17 18 18 18 17 16 15 14 14 12 11 10 9 9 8 7 6 6 6 6 7 8 9 9 9 9 9 9 9 9 8 8 8 7 7 7 7 7 6 6 6 6 6
19 19 19 20 19 18 18 19 18 18 18 17 16 16 14 13 12 11 10 9 8 7 6 6 6 6 6 7 8 8 9 9 9 9 9 8 8 7 7 7 7 7 7 7 7 6 6 6 6
19 18 20 19 19 19 19 19 19 19 18 18 17 16 15 13 13 12 11 10 8 7 5 5 5 5 6 6 7 8 8 8 8 8 8 8 8 8 7 7 7 7 7 7 7 6 6 6 6
18 19 20 18 19 20 20 20 20 20 19 18 18 16 15 14 13 12 11 10 9 7 5 5 5 5 5 6 6 7 7 7 7 8 8 8 8 8 7 7 7 6 6 7 7 6 5 5 5
18 21 18 19 20 20 21 21 21 21 20 19 18 17 16 15 13 13 12 11 9 7 5 4 4 4 4 5 6 6 6 7 7 7 7 7 8 8 7 7 7 6 7 7 7 6 6 5 5
19 19 17 18 20 20 21 21 22 22 21 20 19 18 17 16 14 13 12 11 9 7 5 4 4 4 4 5 5 5 6 6 7 7 7 7 7 8 7 7 7 7 7 6 6 6 6 5 5
18 17 17 18 20 21 20 21 22 22 22 21 20 19 18 16 15 13 12 10 9 8 6 5 5 4 4 4 4 5 5 6 6 7 7 7 7 7 7 7 7 7 6 6 6 6 6 6 5
17 16 16 17 20 20 20 21 22 23 22 21 20 20 18 17 15 13 12 10 9 8 7 7 6 5 5 5 5 5 5 6 6 6 6 6 7 7 7 7 7 7 6 6 6 5 5 5 5
17 15 14 17 19 20 20 22 22 23 23 22 21 20 19 17 15 14 13 11 10 9 8 7 6 6 6 5 5 5 5 5 5 6 6 6 6 6 6 6 6 6 6 6 5 5 5 5 5
17 14 15 18 19 20 21 22 22 23 23 22 22 21 19 18 16 15 14 12 10 9 8 7 7 7 6 6 5 5 5 5 5 5 5 5 6 6 6 6 6 6 6 5 5 5 5 4 4
15 14 16 18 19 20 21 22 22 22 22 22 21 20 19 18 17 16 15 14 11 10 9 8 7 7 6 5 5 4 4 4 4 4 5 5 5 5 5 5 5 5 5 4 4 4 4 3 3
13 13 15 16 17 19 20 21 21 21 21 21 21 21 20 18 17 17 16 14 13 12 11 9 7 6 5 5 4 4 4 3 3 3 4 4 5 4 4 4 4 4 3 3 3 3 3 3 3
11 12 13 15 16 17 18 19 20 20 20 20 20 20 20 19 18 17 16 14 13 13 12 10 8 6 5 5 4 4 4 3 3 3 4 4 4 4 4 4 3 2 2 2 2 3 2 2 2
11 11 12 13 15 15 17 18 18 19 19 19 20 20 19 19 18 18 17 15 14 13 12 11 9 7 6 6 4 4 4 4 3 3 3 4 4 4 4 4 4 3 2 2 2 3 2 2 1
10 11 11 12 13 13 15 16 16 17 18 18 18 19 18 18 18 17 17 16 15 14 13 12 11 9 7 6 5 5 4 4 3 2 2 3 3 4 4 4 4 3 3 2 3 3 3 2 2
10 9 7 8 10 11 13 12 13 14 16 17 17 17 17 17 17 16 16 17 16 15 13 13 12 10 9 7 6 5 3 3 2 2 2 2 2 3 3 4 3 3 3 3 4 4 3 3 3
8 7 6 6 8 8 9 9 10 12 13 15 16 16 16 16 17 16 16 16 16 15 14 13 12 11 10 8 7 6 4 3 2 2 2 2 2 2 3 3 3 3 3 4 4 4 4 4 4
8 7 6 5 5 6 7 7 8 10 11 13 14 15 16 16 16 16 16 16 16 16 15 14 13 13 12 10 9 8 5 4 3 2 1 1 2 2 3 3 3 4 4 4 4 4 5 5 5
9 8 6 5 4 4 5 6 7 8 9 11 13 14 15 16 15 15 16 16 15 15 15 14 13 13 12 11 10 8 7 5 4 3 2 2 1 2 3 4 4 4 4 5 5 5 5 5 6
9 7 5 4 3 3 3 4 5 7 8 10 12 13 13 14 15 15 15 15 15 15 15 14 13 13 12 11 10 9 7 6 5 4 3 2 1 2 3 4 5 5 5 5 6 6 6 6 7
10 8 6 4 2 1 2 3 4 6 7 9 10 11 12 13 14 14 14 14 14 15 14 13 13 12 12 11 10 9 7 6 5 5 4 3 3 3 3 4 4 5 5 5 6 7 7 7 7
11 9 7 5 2 2 1 2 6 5 6 8 9 10 12 12 13 12 13 13 14 14 14 13 13 12 12 11 10 9 8 7 6 6 5 4 4 3 3 3 4 4 5 6 6 7 7 8 8
13 11 9 7 5 3 2 1 6 6 6 7 8 9 11 12 12 11 12 12 12 13 13 13 13 13 12 11 10 9 8 8 7 6 5 5 5 4 4 5 5 5 5 6 6 7 7 8 8
15 12 10 8 6 6 5 2 5 6 6 7 7 8 10 11 11 10 11 12 13 13 13 13 13 13 12 11 10 9 9 8 8 7 7 6 6 6 6 6 6 6 6 6 7 7 7 8 9
17 14 10 9 8 8 6 4 5 6 6 6 6 8 9 9 10 10 11 12 12 13 13 13 13 13 12 11 11 10 9 9 8 8 8 8 7 8 7 6 6 7 8 8 8 7 8 9 10
19 16 13 10 9 9 8 6 6 5 6 6 6 7 8 9 10 10 11 12 12 12 12 12 12 12 12 11 11 10 10 9 9 9 9 9 9 8 8 7 7 8 8 8 8 9 10 10 11
22 19 16 13 12 9 9 8 7 7 6 6 7 7 7 9 10 10 11 11 12 11 12 12 12 12 11 11 11 11 10 9 9 9 9 10 10 9 9 9 8 8 8 9 10 11 11 12 12
24 21 19 16 14 11 11 9 8 8 7 7 8 8 9 10 11 10 10 10 11 12 11 12 12 12 12 11 11 11 10 9 10 10 10 10 10 10 10 9 9 8 9 11 11 12 12 12 13
26 24 22 18 16 12 10 10 11 10 9 8 9 9 10 11 11 10 11 11 11 11 11 11 12 12 11 11 12 11 11 10 11 11 11 11 11 11 10 10 10 10 10 11 12 13 13 14 14
26 25 23 21 19 16 13 12 13 12 11 10 10 10 11 11 10 10 10 10 11 10 10 12 12 12 12 12 13 13 12 11 11 12 11 12 12 11 11 11 11 11 11 12 13 13 13 14 15
Wind_Direction
73 71 71 75 73 76 77 77 75 75 74 72 70 69 69 71 72 74 74 74 74 76 81 88 94 99 104 107 107 106 105 106 106 105 105 106 107 108 107 107 105 104 105 105 104 105 104 104 106
75 73 74 75 77 76 77 76 74 73 72 71 69 66 65 65 66 67 70 72 73 76 84 91 98 103 109 111 108 108 107 107 108 107 108 109 108 110 113 111 110 109 109 110 109 110 110 110 110
76 73 73 75 77 76 76 76 75 72 69 68 66 64 62 62 63 64 66 68 68 72 81 92 100 107 112 113 112 113 112 109 110 110 111 111 113 116 118 115 112 111 112 112 110 110 110 112 110
76 74 71 74 75 74 73 74 74 70 66 65 64 62 61 61 61 61 62 65 66 67 78 89 99 108 114 116 115 115 116 114 112 112 113 115 118 118 119 118 118 116 114 113 113 111 109 109 109
77 74 72 72 74 73 72 72 71 67 63 63 63 62 60 60 58 57 58 61 62 63 72 82 91 102 117 123 121 117 117 119 115 112 114 116 118 119 116 117 118 118 112 110 108 108 108 107 108
77 76 76 73 71 71 71 70 69 66 63 62 62 61 59 58 55 53 54 56 56 57 62 70 74 91 110 122 123 118 117 121 121 117 115 117 118 119 117 117 115 112 112 110 110 108 108 107 107
85 84 80 77 72 69 69 69 68 66 63 60 60 60 58 57 54 51 51 53 54 55 57 65 68 79 95 109 117 119 120 124 123 120 119 118 116 118 119 119 115 111 113 114 113 110 108 109 107
89 81 77 78 75 71 70 69 68 66 63 61 60 59 58 55 52 49 49 50 50 53 54 61 67 73 83 92 107 115 119 125 128 124 124 122 122 122 121 119 118 116 116 114 115 113 108 107 108
88 86 83 83 79 74 72 69 67 66 63 60 58 58 56 53 50 47 47 47 46 47 50 56 63 66 77 83 93 105 116 123 127 125 128 127 127 128 127 126 124 121 120 120 119 120 117 115 114
92 94 88 86 82 76 72 70 67 64 60 58 57 56 54 52 49 47 45 46 46 45 48 54 61 66 71 76 84 98 111 120 125 129 130 128 127 128 127 128 127 127 126 125 126 125 123 116 114
99 98 90 85 82 77 72 69 66 62 58 55 54 53 52 51 49 47 46 45 47 47 49 54 58 61 63 68 76 92 108 122 132 138 138 136 132 130 131 131 127 129 132 134 138 139 128 125 126
102 100 93 87 83 78 74 69 65 61 57 53 51 50 49 48 46 45 44 44 44 44 45 48 50 51 50 52 58 72 86 107 130 145 149 147 144 142 144 138 133 134 138 142 143 145 143 141 140
110 106 97 92 85 79 75 69 64 59 54 50 48 48 46 45 44 42 41 41 42 41 40 40 40 44 40 38 46 60 71 91 113 136 154 156 157 161 159 160 155 153 153 157 152 158 158 156 154
119 110 101 94 87 80 74 68 62 56 51 48 46 44 42 40 40 38 37 37 37 37 37 38 39 40 39 41 49 61 73 90 104 133 156 162 166 169 172 178 181 189 191 186 187 191 189 182 177
128 117 106 97 91 83 75 64 59 53 48 44 41 39 38 37 36 35 35 34 34 35 35 35 35 37 39 45 52 59 70 86 93 116 147 168 180 182 184 188 197 206 209 206 205 203 206 219 224
134 122 111 102 94 85 76 60 53 49 44 40 36 34 34 33 31 30 30 30 31 33 33 32 34 36 36 42 48 52 58 78 89 101 132 159 183 196 193 195 203 214 225 218 210 212 218 227 232
141 141 142 115 100 86 77 65 52 46 41 36 32 30 29 29 27 25 25 25 25 27 30 31 30 30 28 32 33 33 45 59 81 112 121 161 183 197 203 208 211 225 230 223 219 221 225 228 233
167 157 149 128 105 84 73 63 48 42 37 32 28 25 24 23 22 20 21 22 21 22 24 26 27 27 27 31 28 31 35 47 55 75 86 149 187 207 218 226 224 229 232 227 227 231 235 238 244
167 163 166 154 125 91 74 58 43 34 30 27 24 22 20 19 18 17 15 17 19 19 20 24 25 26 26 25 25 29 31 35 41 40 40 58 139 217 235 235 234 236 239 239 237 242 244 248 252
175 173 178 174 163 106 66 45 32 22 19 18 17 16 17 15 13 11 10 15 16 17 18 21 22 22 22 21 21 23 24 28 27 21 18 12 341 299 278 258 243 248 252 249 243 245 249 255 256
189 188 192 192 182 136 40 2 357 2 4 7 7 8 8 8 7 6 5 8 10 11 12 13 15 15 16 14 12 12 16 18 14 9 7 1 336 308 291 272 257 259 260 256 255 254 258 262 261
207 206 205 208 207 264 24 315 317 339 349 349 354 360 359 1 3 4 4 5 5 9 12 13 12 10 9 9 7 3 6 9 6 357 353 344 335 315 298 291 284 277 270 267 264 259 261 264 269
215 216 218 222 228 248 283 295 304 319 334 339 347 354 354 355 360 5 8 11 10 10 10 13 11 9 6 5 5 2 359 359 357 348 340 334 327 313 304 298 293 287 281 275 274 265 264 268 271
220 223 228 234 243 255 265 284 297 307 317 330 338 348 354 355 0 4 7 9 9 7 7 8 8 7 6 4 3 1 357 353 353 352 346 334 327 319 305 296 290 289 284 280 278 274 273 275 276
221 223 231 239 247 255 265 272 275 297 314 323 333 347 353 357 359 0 360 2 4 4 5 5 4 4 4 3 2 359 356 354 352 355 354 345 331 323 312 301 291 287 285 281 278 278 279 278 279
220 220 223 230 244 261 271 265 277 291 309 317 327 342 351 351 353 354 354 357 359 0 1 1 360 359 359 1 2 358 359 357 355 352 349 344 335 327 319 308 298 291 286 283 280 279 282 284 288
224 222 224 234 240 246 260 267 271 282 295 305 314 328 336 340 343 344 348 353 357 356 356 358 356 356 358 1 1 357 355 353 349 346 344 342 339 333 323 318 308 299 294 288 285 284 283 285 289
225 227 230 232 242 246 260 265 261 273 279 295 305 311 319 327 331 335 345 349 351 352 351 353 355 354 355 356 356 353 351 346 340 340 340 337 334 332 329 324 314 306 302 298 293 290 290 290 293
227 229 232 235 238 240 251 257 259 267 274 285 293 300 311 319 324 330 339 342 343 346 350 349 350 350 351 350 350 349 345 342 343 339 338 337 335 333 332 327 317 308 302 298 293 290 292 291 292
228 230 233 237 244 244 240 252 260 261 269 275 284 292 303 310 316 324 333 339 340 342 345 345 347 348 347 346 345 343 342 340 340 339 336 335 332 329 325 322 316 310 305 302 300 295 295 295 295
Height
5916 5914 5914 5914 5915 5914 5911 5911 5909 5907 5906 5905 5904 5903 5902 5901 5902 5903 5900 5898 5898 5897 5896 5896 5896 5896 5895 5895 5895 5895 5895 5894 5894 5894 5894 5895 5895 5895 5895 5895 5895 5895 5895 5895 5896 5896 5897 5897 5897
5918 5917 5918 5918 5918 5916 5914 5912 5911 5909 5908 5906 5905 5904 5903 5902 5902 5901 5899 5899 5899 5898 5898 5897 5897 5897 5896 5896 5896 5896 5896 5895 5895 5895 5895 5895 5896 5896 5896 5896 5896 5896 5896 5897 5897 5897 5898 5898 5898
5921 5921 5921 5922 5920 5918 5917 5914 5912 5911 5910 5908 5907 5906 5905 5904 5903 5902 5901 5900 5900 5899 5899 5898 5898 5898 5898 5897 5897 5897 5897 5896 5896 5896 5896 5896 5896 5896 5897 5897 5897 5897 5897 5898 5898 5898 5899 5899 5899
5924 5924 5925 5925 5921 5920 5918 5916 5914 5913 5911 5910 5908 5908 5906 5906 5905 5904 5902 5901 5901 5900 5900 5899 5899 5899 5898 5898 5898 5898 5897 5897 5897 5897 5897 5897 5897 5897 5897 5898 5898 5898 5898 5898 5899 5899 5899 5900 5900
5926 5927 5929 5927 5924 5922 5920 5918 5916 5915 5914 5912 5910 5909 5908 5907 5906 5905 5904 5903 5902 5901 5901 5900 5900 5899 5899 5899 5899 5898 5898 5898 5898 5898 5898 5898 5898 5898 5898 5898 5898 5898 5899 5899 5900 5900 5900 5900 5901
5930 5932 5933 5930 5927 5925 5923 5921 5919 5917 5916 5914 5913 5911 5910 5909 5908 5907 5906 5905 5904 5903 5902 5901 5901 5900 5900 5899 5899 5899 5899 5899 5899 5899 5899 5899 5899 5899 5899 5899 5899 5899 5900 5900 5900 5901 5901 5901 5901
5934 5936 5934 5932 5929 5927 5926 5924 5921 5920 5918 5917 5915 5914 5912 5911 5910 5909 5907 5906 5905 5904 5903 5902 5901 5901 5900 5900 5900 5900 5899 5899 5900 5900 5900 5900 5900 5900 5900 5900 5900 5900 5901 5901 5901 5902 5902 5902 5902
5935 5939 5937 5935 5933 5931 5929 5926 5924 5922 5921 5920 5918 5916 5915 5913 5912 5911 5909 5908 5907 5905 5904 5903 5903 5902 5901 5901 5900 5900 5900 5900 5900 5900 5900 5900 5900 5901 5901 5901 5901 5901 5901 5902 5902 5902 5903 5903 5903
5938 5942 5940 5938 5936 5934 5931 5929 5927 5925 5924 5922 5920 5919 5917 5916 5914 5913 5911 5909 5908 5907 5906 5905 5904 5903 5902 5901 5901 5901 5901 5900 5901 5901 5901 5901 5901 5901 5901 5901 5902 5902 5902 5903 5903 5903 5903 5903 5904
5941 5944 5941 5939 5938 5936 5934 5932 5930 5928 5926 5925 5923 5921 5920 5918 5916 5914 5913 5911 5910 5908 5907 5906 5905 5904 5903 5902 5902 5901 5901 5901 5901 5901 5901 5901 5901 5901 5902 5902 5902 5903 5903 5903 5904 5904 5904 5904 5904
5943 5944 5942 5941 5939 5938 5936 5935 5933 5931 5930 5928 5926 5924 5922 5920 5918 5917 5915 5913 5911 5910 5908 5907 5906 5905 5904 5903 5902 5902 5901 5901 5901 5901 5901 5902 5902 5902 5902 5903 5903 5903 5903 5904 5904 5904 5904 5904 5905
5945 5945 5944 5943 5942 5940 5939 5937 5936 5934 5933 5931 5929 5927 5925 5923 5921 5919 5917 5915 5913 5911 5909 5908 5906 5905 5905 5904 5903 5902 5902 5901 5901 5901 5902 5902 5902 5902 5903 5903 5903 5903 5904 5904 5904 5904 5905 5905 5905
5947 5946 5946 5945 5944 5943 5942 5940 5939 5937 5935 5933 5931 5929 5927 5925 5923 5921 5919 5917 5915 5913 5911 5909 5907 5906 5905 5904 5903 5902 5902 5902 5902 5902 5902 5902 5903 5903 5903 5903 5904 5904 5904 5904 5904 5905 5905 5905 5905
5948 5948 5948 5947 5946 5945 5944 5943 5942 5940 5938 5936 5934 5932 5930 5928 5926 5924 5922 5919 5917 5915 5912 5910 5908 5907 5906 5905 5904 5903 5902 5902 5902 5902 5902 5902 5903 5903 5903 5904 5904 5904 5904 5904 5905 5905 5905 5905 5905
5949 5950 5950 5949 5948 5947 5947 5946 5944 5943 5941 5938 5936 5934 5932 5930 5928 5926 5923 5921 5919 5916 5914 5912 5909 5908 5906 5905 5904 5904 5903 5902 5902 5902 5902 5902 5903 5903 5903 5903 5904 5904 5904 5904 5904 5905 5905 5905 5905
5951 5952 5953 5952 5950 5950 5950 5950 5947 5945 5943 5941 5939 5937 5934 5932 5930 5928 5925 5923 5920 5918 5916 5914 5911 5909 5907 5906 5905 5904 5903 5902 5902 5902 5902 5902 5903 5903 5903 5903 5903 5904 5904 5904 5904 5904 5905 5905 5905
5952 5955 5955 5954 5952 5951 5951 5951 5949 5947 5945 5943 5941 5939 5936 5934 5932 5929 5927 5924 5922 5919 5917 5915 5912 5910 5909 5907 5905 5904 5903 5903 5902 5902 5902 5902 5902 5902 5902 5903 5903 5903 5903 5903 5904 5904 5904 5904 5904
5954 5955 5955 5955 5954 5953 5952 5952 5950 5948 5946 5944 5942 5940 5938 5936 5934 5931 5928 5926 5923 5921 5918 5916 5914 5911 5909 5907 5906 5905 5904 5903 5903 5902 5902 5902 5902 5902 5902 5902 5902 5902 5903 5903 5903 5903 5903 5903 5904
5952 5954 5955 5955 5954 5954 5953 5953 5951 5949 5948 5946 5944 5942 5939 5937 5935 5932 5930 5927 5925 5922 5919 5917 5915 5913 5911 5908 5907 5906 5905 5904 5903 5903 5902 5902 5902 5901 5901 5901 5901 5902 5902 5902 5902 5902 5902 5902 5902
5951 5953 5954 5954 5954 5954 5954 5953 5952 5950 5949 5947 5945 5943 5941 5938 5935 5933 5931 5928 5926 5923 5921 5918 5916 5914 5912 5910 5908 5907 5906 5905 5904 5903 5902 5901 5901 5901 5901 5900 5901 5901 5901 5901 5901 5901 5901 5901 5901
5950 5952 5953 5954 5954 5954 5955 5954 5953 5951 5950 5948 5946 5944 5941 5939 5937 5934 5931 5929 5926 5924 5922 5919 5917 5915 5913 5911 5909 5908 5906 5905 5904 5903 5902 5902 5901 5901 5900 5900 5900 5900 5900 5900 5900 5900 5900 5900 5900
5949 5950 5952 5953 5954 5955 5955 5957 5953 5951 5950 5948 5947 5944 5942 5939 5937 5934 5932 5929 5927 5925 5922 5920 5918 5916 5914 5912 5910 5908 5907 5905 5904 5903 5902 5902 5901 5900 5900 5899 5899 5899 5898 5898 5898 5898 5898 5898 5898
5947 5948 5950 5951 5953 5954 5954 5955 5955 5951 5950 5948 5947 5945 5942 5939 5937 5935 5933 5930 5927 5925 5923 5921 5919 5916 5914 5912 5910 5909 5907 5906 5904 5903 5902 5901 5900 5899 5899 5898 5898 5897 5897 5897 5896 5896 5896 5896 5896
5944 5947 5948 5950 5952 5954 5953 5954 5954 5951 5949 5948 5946 5944 5942 5940 5937 5935 5933 5931 5929 5926 5924 5922 5919 5917 5915 5913 5911 5909 5907 5906 5904 5903 5902 5901 5900 5899 5898 5897 5897 5896 5896 5895 5895 5895 5894 5894 5894
5942 5946 5949 5950 5952 5953 5951 5952 5952 5950 5948 5947 5946 5944 5942 5940 5938 5936 5934 5932 5929 5927 5925 5922 5920 5917 5915 5913 5911 5909 5907 5906 5904 5903 5901 5900 5899 5898 5897 5896 5895 5895 5894 5894 5893 5893 5893 5892 5892
5939 5943 5947 5950 5951 5951 5949 5950 5950 5948 5947 5946 5945 5943 5942 5940 5938 5936 5934 5931 5929 5927 5925 5922 5920 5918 5915 5913 5911 5909 5907 5905 5904 5902 5901 5899 5898 5897 5895 5894 5894 5893 5892 5892 5891 5891 5890 5890 5889
5935 5939 5943 5945 5946 5948 5948 5947 5947 5946 5945 5945 5944 5943 5941 5939 5938 5935 5933 5931 5929 5927 5925 5922 5920 5918 5916 5913 5911 5909 5907 5905 5904 5902 5900 5898 5897 5895 5894 5893 5892 5891 5890 5890 5889 5888 5888 5887 5886
5932 5935 5938 5942 5943 5945 5946 5945 5946 5944 5944 5943 5942 5941 5940 5939 5937 5935 5933 5931 5929 5926 5924 5922 5920 5918 5916 5913 5911 5909 5907 5905 5903 5901 5899 5898 5896 5894 5892 5891 5890 5889 5888 5887 5886 5885 5884 5883 5882
5928 5931 5934 5937 5939 5942 5945 5946 5943 5942 5942 5941 5940 5939 5938 5937 5936 5934 5932 5930 5928 5926 5924 5922 5920 5918 5915 5913 5911 5909 5907 5904 5902 5900 5898 5897 5895 5893 5891 5890 5888 5887 5886 5884 5883 5882 5881 5880 5879
5923 5926 5930 5933 5935 5937 5940 5944 5938 5939 5939 5939 5938 5937 5937 5935 5934 5933 5931 5929 5927 5925 5923 5921 5919 5917 5915 5913 5910 5908 5906 5903 5901 5899 5897 5895 5893 5891 5890 5888 5886 5885 5883 5882 5880 5879 5878 5876 5875